Time,TemperatureF,DewpointF,PressureIn,WindDirection,WindDirectionDegrees,WindSpeedMPH,WindSpeedGustMPH,Humidity,HourlyPrecipIn,Conditions,Clouds,dailyrainin,SoftwareType,DateUTC
2013-05-06 00:03:00,63.2,54.4,21.47,WSW,252,0.0,0.0,73,0.00,,---,0.00,VWS V13.01,2013-05-06 07:03:00,
2013-05-06 00:08:00,63.2,54.8,21.47,WSW,252,0.0,3.0,74,0.00,,---,0.00,VWS V13.01,2013-05-06 07:08:00,
2013-05-06 00:13:00,63.1,54.7,21.47,WSW,252,2.0,4.0,74,0.00,,---,0.00,VWS V13.01,2013-05-06 07:13:00,
2013-05-06 00:18:00,63.0,54.6,21.47,WSW,252,0.0,4.0,74,0.00,,---,0.00,VWS V13.01,2013-05-06 07:18:00,
2013-05-06 00:23:00,62.8,54.4,21.48,WSW,252,2.0,4.0,74,0.00,,---,0.00,VWS V13.01,2013-05-06 07:23:00,
2013-05-06 00:28:00,62.7,54.3,21.48,WSW,252,0.0,4.0,74,0.00,,---,0.00,VWS V13.01,2013-05-06 07:28:00,
2013-05-06 00:33:00,62.7,54.3,21.48,WSW,252,0.0,1.0,74,0.00,,---,0.00,VWS V13.01,2013-05-06 07:33:00,
2013-05-06 00:38:00,62.6,54.9,21.48,WSW,252,0.0,1.0,76,0.00,,---,0.00,VWS V13.01,2013-05-06 07:38:00,
2013-05-06 00:43:00,62.6,54.2,21.48,WSW,252,0.0,2.0,74,0.00,,---,0.00,VWS V13.01,2013-05-06 07:43:00,
2013-05-06 00:48:00,62.6,54.2,21.48,WSW,252,0.0,2.0,74,0.00,,---,0.00,VWS V13.01,2013-05-06 07:48:00,
2013-05-06 00:53:00,62.6,54.2,21.48,WSW,252,0.0,2.0,74,0.00,,---,0.00,VWS V13.01,2013-05-06 07:53:00,
2013-05-06 00:58:00,62.5,54.1,21.49,WSW,252,0.0,2.0,74,0.00,,---,0.00,VWS V13.01,2013-05-06 07:58:00,
2013-05-06 01:03:00,62.4,54.8,21.49,WSW,252,0.0,0.0,76,0.00,,---,0.00,VWS V13.01,2013-05-06 08:03:00,
2013-05-06 01:08:00,62.3,54.3,21.49,WSW,252,0.0,0.0,75,0.00,,---,0.00,VWS V13.01,2013-05-06 08:08:00,
2013-05-06 01:13:00,62.3,54.3,21.49,WSW,252,0.0,2.0,75,0.00,,---,0.00,VWS V13.01,2013-05-06 08:13:00,
2013-05-06 01:18:00,62.3,54.7,21.49,WSW,252,0.0,2.0,76,0.00,,---,0.00,VWS V13.01,2013-05-06 08:18:00,
2013-05-06 01:23:00,62.3,54.7,21.49,WSW,252,0.0,2.0,76,0.00,,---,0.00,VWS V13.01,2013-05-06 08:23:00,
2013-05-06 01:28:00,62.2,54.5,21.49,WSW,252,0.0,2.0,76,0.00,,---,0.00,VWS V13.01,2013-05-06 08:28:00,
2013-05-06 01:33:00,62.3,54.7,21.49,WSW,252,0.0,0.0,76,0.00,,---,0.00,VWS V13.01,2013-05-06 08:33:00,
2013-05-06 01:38:00,62.2,54.2,21.49,WSW,252,0.0,0.0,75,0.00,,---,0.00,VWS V13.01,2013-05-06 08:38:00,
2013-05-06 01:43:00,62.2,54.5,21.49,WSW,252,0.0,0.0,76,0.00,,---,0.00,VWS V13.01,2013-05-06 08:43:00,
2013-05-06 01:48:00,62.2,54.2,21.50,WSW,252,0.0,0.0,75,0.00,,---,0.00,VWS V13.01,2013-05-06 08:48:00,
2013-05-06 01:53:00,62.2,54.5,21.50,WSW,252,0.0,0.0,76,0.00,,---,0.00,VWS V13.01,2013-05-06 08:53:00,
2013-05-06 01:58:00,62.2,54.2,21.50,WSW,252,0.0,0.0,75,0.00,,---,0.00,VWS V13.01,2013-05-06 08:58:00,
2013-05-06 02:03:00,62.1,54.1,21.49,WSW,252,0.0,0.0,75,0.00,,---,0.00,VWS V13.01,2013-05-06 09:03:00,
2013-05-06 02:08:00,62.1,54.1,21.49,WSW,252,0.0,0.0,75,0.00,,---,0.00,VWS V13.01,2013-05-06 09:08:00,
2013-05-06 02:13:00,62.0,54.0,21.49,WSW,252,0.0,0.0,75,0.00,,---,0.00,VWS V13.01,2013-05-06 09:13:00,
2013-05-06 02:18:00,62.0,54.0,21.49,WSW,252,0.0,0.0,75,0.00,,---,0.00,VWS V13.01,2013-05-06 09:18:00,
2013-05-06 02:23:00,62.0,54.0,21.49,WSW,252,0.0,0.0,75,0.00,,---,0.00,VWS V13.01,2013-05-06 09:23:00,
2013-05-06 02:28:00,61.9,54.3,21.49,WSW,252,0.0,0.0,76,0.00,,---,0.00,VWS V13.01,2013-05-06 09:28:00,
2013-05-06 02:33:00,61.8,53.8,21.50,WSW,252,0.0,0.0,75,0.00,,---,0.00,VWS V13.01,2013-05-06 09:33:00,
2013-05-06 02:38:00,61.8,54.2,21.49,WSW,252,0.0,0.0,76,0.00,,---,0.00,VWS V13.01,2013-05-06 09:38:00,
2013-05-06 02:43:00,61.7,54.4,21.49,WSW,252,0.0,1.0,77,0.00,,---,0.00,VWS V13.01,2013-05-06 09:43:00,
2013-05-06 02:48:00,61.6,54.3,21.49,WSW,252,0.0,1.0,77,0.00,,---,0.00,VWS V13.01,2013-05-06 09:48:00,
2013-05-06 02:53:00,61.5,54.2,21.49,WSW,252,1.0,2.0,77,0.00,,---,0.00,VWS V13.01,2013-05-06 09:53:00,
2013-05-06 02:58:00,61.4,54.1,21.49,WSW,252,0.0,2.0,77,0.00,,---,0.00,VWS V13.01,2013-05-06 09:58:00,
2013-05-06 03:03:00,61.3,54.0,21.49,WSW,252,0.0,0.0,77,0.00,,---,0.00,VWS V13.01,2013-05-06 10:03:00,
2013-05-06 03:08:00,61.2,54.3,21.49,WSW,252,0.0,2.0,78,0.00,,---,0.00,VWS V13.01,2013-05-06 10:08:00,
2013-05-06 03:13:00,61.0,54.1,21.49,WSW,252,1.0,2.0,78,0.00,,---,0.00,VWS V13.01,2013-05-06 10:13:00,
2013-05-06 03:18:00,60.9,54.0,21.49,WSW,252,0.0,2.0,78,0.00,,---,0.00,VWS V13.01,2013-05-06 10:18:00,
2013-05-06 03:23:00,60.8,53.9,21.49,WSW,252,0.0,2.0,78,0.00,,---,0.00,VWS V13.01,2013-05-06 10:23:00,
2013-05-06 03:28:00,60.7,53.8,21.49,WSW,252,0.0,2.0,78,0.00,,---,0.00,VWS V13.01,2013-05-06 10:28:00,
2013-05-06 03:33:00,60.6,53.7,21.49,WSW,252,0.0,0.0,78,0.00,,---,0.00,VWS V13.01,2013-05-06 10:33:00,
2013-05-06 03:38:00,60.4,53.9,21.50,WSW,252,0.0,1.0,79,0.00,,---,0.00,VWS V13.01,2013-05-06 10:38:00,
2013-05-06 03:43:00,60.4,53.9,21.50,WSW,252,0.0,2.0,79,0.00,,---,0.00,VWS V13.01,2013-05-06 10:43:00,
2013-05-06 03:48:00,60.4,53.9,21.50,WSW,252,0.0,2.0,79,0.00,,---,0.00,VWS V13.01,2013-05-06 10:48:00,
2013-05-06 03:53:00,60.2,53.7,21.50,WSW,252,0.0,2.0,79,0.00,,---,0.00,VWS V13.01,2013-05-06 10:53:00,
2013-05-06 03:58:00,60.2,53.7,21.49,WSW,252,0.0,2.0,79,0.00,,---,0.00,VWS V13.01,2013-05-06 10:58:00,
2013-05-06 04:04:00,60.0,53.8,21.49,WSW,252,1.0,1.0,80,0.00,,---,0.00,VWS V13.01,2013-05-06 11:04:00,
2013-05-06 04:09:00,59.9,53.7,21.49,WSW,252,1.0,2.0,80,0.00,,---,0.00,VWS V13.01,2013-05-06 11:09:00,
2013-05-06 04:14:00,59.7,53.5,21.49,WSW,252,0.0,3.0,80,0.00,,---,0.00,VWS V13.01,2013-05-06 11:14:00,
2013-05-06 04:19:00,59.6,53.8,21.49,WSW,252,0.0,3.0,81,0.00,,---,0.00,VWS V13.01,2013-05-06 11:19:00,
2013-05-06 04:24:00,59.6,53.8,21.49,WSW,252,0.0,3.0,81,0.00,,---,0.00,VWS V13.01,2013-05-06 11:24:00,
2013-05-06 04:29:00,59.4,53.2,21.50,WSW,252,0.0,3.0,80,0.00,,---,0.00,VWS V13.01,2013-05-06 11:29:00,
2013-05-06 04:34:00,59.2,53.4,21.50,WSW,252,0.0,0.0,81,0.00,,---,0.00,VWS V13.01,2013-05-06 11:34:00,
2013-05-06 04:39:00,59.2,53.4,21.50,WSW,252,0.0,0.0,81,0.00,,---,0.00,VWS V13.01,2013-05-06 11:39:00,
2013-05-06 04:44:00,59.2,53.4,21.50,WSW,252,0.0,0.0,81,0.00,,---,0.00,VWS V13.01,2013-05-06 11:44:00,
2013-05-06 04:49:00,59.1,53.3,21.51,WSW,252,0.0,2.0,81,0.00,,---,0.00,VWS V13.01,2013-05-06 11:49:00,
2013-05-06 04:54:00,59.0,53.2,21.51,WSW,252,2.0,3.0,81,0.00,,---,0.00,VWS V13.01,2013-05-06 11:54:00,
2013-05-06 04:59:00,59.0,53.5,21.51,WSW,249,0.0,3.0,82,0.00,,---,0.00,VWS V13.01,2013-05-06 11:59:00,
2013-05-06 05:04:00,59.0,53.5,21.51,WSW,249,0.0,0.0,82,0.00,,---,0.00,VWS V13.01,2013-05-06 12:04:00,
2013-05-06 05:09:00,59.0,53.5,21.51,WSW,249,0.0,0.0,82,0.00,,---,0.00,VWS V13.01,2013-05-06 12:09:00,
2013-05-06 05:14:00,59.1,53.3,21.52,WSW,249,1.0,3.0,81,0.00,,---,0.00,VWS V13.01,2013-05-06 12:14:00,
2013-05-06 05:19:00,59.1,53.3,21.52,SW,226,1.0,4.0,81,0.00,,---,0.00,VWS V13.01,2013-05-06 12:19:00,
2013-05-06 05:24:00,59.1,53.3,21.52,ESE,113,2.0,5.0,81,0.00,,---,0.00,VWS V13.01,2013-05-06 12:24:00,
2013-05-06 05:29:00,59.3,53.5,21.52,ESE,112,0.0,5.0,81,0.00,,---,0.00,VWS V13.01,2013-05-06 12:29:00,
2013-05-06 05:34:00,59.4,53.9,21.52,ESE,111,0.0,3.0,82,0.00,,---,0.00,VWS V13.01,2013-05-06 12:34:00,
2013-05-06 05:39:00,59.5,54.0,21.52,ESE,113,0.0,3.0,82,0.00,,---,0.00,VWS V13.01,2013-05-06 12:39:00,
2013-05-06 05:44:00,59.6,53.8,21.52,ESE,113,1.0,3.0,81,0.00,,---,0.00,VWS V13.01,2013-05-06 12:44:00,
2013-05-06 05:49:00,59.6,53.8,21.52,ESE,112,1.0,3.0,81,0.00,,---,0.00,VWS V13.01,2013-05-06 12:49:00,
2013-05-06 05:54:00,59.7,53.9,21.52,ESE,112,1.0,3.0,81,0.00,,---,0.00,VWS V13.01,2013-05-06 12:54:00,
2013-05-06 05:59:00,59.7,54.2,21.53,ESE,113,0.0,3.0,82,0.00,,---,0.00,VWS V13.01,2013-05-06 12:59:00,
2013-05-06 06:04:00,59.7,53.5,21.53,ESE,109,0.0,4.0,80,0.00,,---,0.00,VWS V13.01,2013-05-06 13:04:00,
2013-05-06 06:09:00,59.7,53.5,21.53,ESE,104,0.0,4.0,80,0.00,,---,0.00,VWS V13.01,2013-05-06 13:09:00,
2013-05-06 06:14:00,59.7,53.5,21.53,ESE,104,1.0,4.0,80,0.00,,---,0.00,VWS V13.01,2013-05-06 13:14:00,
2013-05-06 06:19:00,59.7,53.5,21.53,ESE,103,1.0,4.0,80,0.00,,---,0.00,VWS V13.01,2013-05-06 13:19:00,
2013-05-06 06:24:00,59.7,53.5,21.53,ESE,103,0.0,4.0,80,0.00,,---,0.00,VWS V13.01,2013-05-06 13:24:00,
2013-05-06 06:29:00,59.8,53.6,21.53,ESE,103,1.0,4.0,80,0.00,,---,0.00,VWS V13.01,2013-05-06 13:29:00,
2013-05-06 06:34:00,59.9,53.4,21.54,ESE,103,0.0,3.0,79,0.00,,---,0.00,VWS V13.01,2013-05-06 13:34:00,
2013-05-06 06:39:00,60.0,53.5,21.53,ESE,103,0.0,3.0,79,0.00,,---,0.00,VWS V13.01,2013-05-06 13:39:00,
2013-05-06 06:44:00,60.1,53.6,21.54,ESE,103,0.0,5.0,79,0.00,,---,0.00,VWS V13.01,2013-05-06 13:44:00,
2013-05-06 06:49:00,60.2,53.7,21.54,ESE,103,3.0,5.0,79,0.00,,---,0.00,VWS V13.01,2013-05-06 13:49:00,
2013-05-06 06:54:00,60.3,53.8,21.54,ESE,103,0.0,5.0,79,0.00,,---,0.00,VWS V13.01,2013-05-06 13:54:00,
2013-05-06 06:59:00,60.3,53.4,21.54,ESE,103,0.0,5.0,78,0.00,,---,0.00,VWS V13.01,2013-05-06 13:59:00,
2013-05-06 07:04:00,60.4,53.9,21.54,ESE,103,1.0,3.0,79,0.00,,---,0.00,VWS V13.01,2013-05-06 14:04:00,
2013-05-06 07:09:00,60.4,53.9,21.55,ESE,103,0.0,3.0,79,0.00,,---,0.00,VWS V13.01,2013-05-06 14:09:00,
2013-05-06 07:14:00,60.4,54.2,21.55,ESE,103,0.0,3.0,80,0.00,,---,0.00,VWS V13.01,2013-05-06 14:14:00,
2013-05-06 07:19:00,60.5,54.3,21.55,ESE,103,0.0,3.0,80,0.00,,---,0.00,VWS V13.01,2013-05-06 14:19:00,
2013-05-06 07:24:00,60.6,54.1,21.55,ESE,103,1.0,3.0,79,0.00,,---,0.00,VWS V13.01,2013-05-06 14:24:00,
2013-05-06 07:29:00,60.7,54.2,21.55,ESE,103,0.0,3.0,79,0.00,,---,0.00,VWS V13.01,2013-05-06 14:29:00,
2013-05-06 07:34:00,60.7,54.2,21.55,ESE,103,0.0,1.0,79,0.00,,---,0.00,VWS V13.01,2013-05-06 14:34:00,
2013-05-06 07:39:00,60.8,54.6,21.55,ESE,103,0.0,1.0,80,0.00,,---,0.00,VWS V13.01,2013-05-06 14:39:00,
2013-05-06 07:44:00,60.9,54.7,21.55,ESE,103,0.0,1.0,80,0.00,,---,0.00,VWS V13.01,2013-05-06 14:44:00,
2013-05-06 07:49:00,61.1,54.5,21.55,ESE,103,0.0,1.0,79,0.00,,---,0.00,VWS V13.01,2013-05-06 14:49:00,
2013-05-06 07:54:00,61.2,54.3,21.55,ESE,103,0.0,1.0,78,0.00,,---,0.00,VWS V13.01,2013-05-06 14:54:00,
2013-05-06 07:59:00,61.2,54.3,21.55,ESE,103,0.0,1.0,78,0.00,,---,0.00,VWS V13.01,2013-05-06 14:59:00,
2013-05-06 08:04:00,61.3,54.4,21.55,ESE,103,0.0,0.0,78,0.00,,---,0.00,VWS V13.01,2013-05-06 15:04:00,
2013-05-06 08:09:00,61.4,54.5,21.55,ESE,103,0.0,0.0,78,0.00,,---,0.00,VWS V13.01,2013-05-06 15:09:00,
2013-05-06 08:14:00,61.5,54.6,21.55,ESE,103,0.0,0.0,78,0.00,,---,0.00,VWS V13.01,2013-05-06 15:14:00,
2013-05-06 08:19:00,61.7,54.8,21.55,ESE,103,0.0,2.0,78,0.00,,---,0.00,VWS V13.01,2013-05-06 15:19:00,
2013-05-06 08:24:00,61.9,54.6,21.56,ESE,103,1.0,2.0,77,0.00,,---,0.00,VWS V13.01,2013-05-06 15:24:00,
2013-05-06 08:29:00,62.0,54.4,21.56,East,99,0.0,2.0,76,0.00,,---,0.00,VWS V13.01,2013-05-06 15:29:00,
2013-05-06 08:34:00,62.1,54.5,21.56,East,99,2.0,4.0,76,0.00,,---,0.00,VWS V13.01,2013-05-06 15:34:00,
2013-05-06 08:39:00,62.2,54.5,21.56,East,99,0.0,4.0,76,0.00,,---,0.00,VWS V13.01,2013-05-06 15:39:00,
2013-05-06 08:44:00,62.3,54.7,21.56,East,99,0.0,4.0,76,0.00,,---,0.00,VWS V13.01,2013-05-06 15:44:00,
2013-05-06 08:49:00,62.3,54.7,21.56,East,99,0.0,4.0,76,0.00,,---,0.00,VWS V13.01,2013-05-06 15:49:00,
2013-05-06 08:54:00,62.3,54.3,21.56,East,99,1.0,4.0,75,0.00,,---,0.00,VWS V13.01,2013-05-06 15:54:00,
2013-05-06 08:59:00,62.3,54.7,21.56,East,99,0.0,4.0,76,0.00,,---,0.00,VWS V13.01,2013-05-06 15:59:00,
2013-05-06 09:04:00,62.4,54.8,21.56,East,98,0.0,2.0,76,0.00,,---,0.00,VWS V13.01,2013-05-06 16:04:00,
2013-05-06 09:09:00,62.5,54.8,21.56,East,98,0.0,3.0,76,0.00,,---,0.00,VWS V13.01,2013-05-06 16:09:00,
2013-05-06 09:14:00,62.7,54.7,21.57,East,97,0.0,3.0,75,0.00,,---,0.00,VWS V13.01,2013-05-06 16:14:00,
2013-05-06 09:19:00,63.0,54.6,21.57,East,95,0.0,3.0,74,0.00,,---,0.00,VWS V13.01,2013-05-06 16:19:00,
2013-05-06 09:24:00,63.2,54.8,21.57,East,93,0.0,3.0,74,0.00,,---,0.00,VWS V13.01,2013-05-06 16:24:00,
2013-05-06 09:29:00,63.5,55.1,21.57,East,82,1.0,4.0,74,0.00,,---,0.00,VWS V13.01,2013-05-06 16:29:00,
2013-05-06 09:34:00,63.6,55.2,21.57,ENE,58,3.0,3.0,74,0.00,,---,0.00,VWS V13.01,2013-05-06 16:34:00,
2013-05-06 09:39:00,63.9,55.1,21.57,NE,49,0.0,4.0,73,0.00,,---,0.00,VWS V13.01,2013-05-06 16:39:00,
2013-05-06 09:44:00,64.1,55.3,21.56,NE,54,1.0,4.0,73,0.00,,---,0.00,VWS V13.01,2013-05-06 16:44:00,
2013-05-06 09:49:00,64.6,56.1,21.57,ENE,63,2.0,4.0,74,0.00,,---,0.00,VWS V13.01,2013-05-06 16:49:00,
2013-05-06 09:55:00,65.1,55.9,21.57,ENE,59,0.0,4.0,72,0.00,,---,0.00,VWS V13.01,2013-05-06 16:55:00,
2013-05-06 10:00:00,65.5,56.2,21.57,East,89,1.0,6.0,72,0.00,,---,0.00,VWS V13.01,2013-05-06 17:00:00,
2013-05-06 10:05:00,65.8,55.8,21.57,ENE,60,1.0,4.0,70,0.00,,---,0.00,VWS V13.01,2013-05-06 17:05:00,
2013-05-06 10:10:00,66.1,56.0,21.57,NE,56,0.0,4.0,70,0.00,,---,0.00,VWS V13.01,2013-05-06 17:10:00,
2013-05-06 10:15:00,66.4,55.1,21.57,NE,56,0.0,4.0,67,0.00,,---,0.00,VWS V13.01,2013-05-06 17:15:00,
2013-05-06 10:20:00,66.7,55.4,21.57,NE,51,1.0,4.0,67,0.00,,---,0.00,VWS V13.01,2013-05-06 17:20:00,
2013-05-06 10:25:00,67.2,55.5,21.57,NE,46,0.0,4.0,66,0.00,,---,0.00,VWS V13.01,2013-05-06 17:25:00,
2013-05-06 10:30:00,67.8,56.0,21.57,NE,46,1.0,4.0,66,0.00,,---,0.00,VWS V13.01,2013-05-06 17:30:00,
2013-05-06 10:35:00,68.4,55.3,21.57,North,11,3.0,6.0,63,0.00,,---,0.00,VWS V13.01,2013-05-06 17:35:00,
2013-05-06 10:40:00,68.8,56.1,21.57,East,92,0.0,6.0,64,0.00,,---,0.00,VWS V13.01,2013-05-06 17:40:00,
2013-05-06 10:45:00,69.4,56.3,21.56,North,10,2.0,7.0,63,0.00,,---,0.00,VWS V13.01,2013-05-06 17:45:00,
2013-05-06 10:50:00,69.9,56.8,21.57,NNE,15,2.0,9.0,63,0.00,,---,0.00,VWS V13.01,2013-05-06 17:50:00,
2013-05-06 10:55:00,70.0,56.4,21.56,North,0,1.0,9.0,62,0.00,,---,0.00,VWS V13.01,2013-05-06 17:55:00,
2013-05-06 11:00:00,70.3,56.7,21.56,ENE,69,2.0,9.0,62,0.00,,---,0.00,VWS V13.01,2013-05-06 18:00:00,
2013-05-06 11:05:00,70.7,56.2,21.56,NE,45,4.0,4.0,60,0.00,,---,0.00,VWS V13.01,2013-05-06 18:05:00,
2013-05-06 11:10:00,71.0,56.0,21.56,NNE,21,3.0,6.0,59,0.00,,---,0.00,VWS V13.01,2013-05-06 18:10:00,
2013-05-06 11:15:00,70.8,56.2,21.56,East,86,1.0,6.0,60,0.00,,---,0.00,VWS V13.01,2013-05-06 18:15:00,
2013-05-06 11:20:00,70.4,55.4,21.56,North,1,5.0,8.0,59,0.00,,---,0.00,VWS V13.01,2013-05-06 18:20:00,
2013-05-06 11:25:00,70.2,55.2,21.56,NNE,21,2.0,8.0,59,0.00,,---,0.00,VWS V13.01,2013-05-06 18:25:00,
2013-05-06 11:30:00,69.9,54.9,21.56,North,6,8.0,8.0,59,0.00,,---,0.00,VWS V13.01,2013-05-06 18:30:00,
2013-05-06 11:35:00,69.6,54.7,21.56,NNE,13,1.0,9.0,59,0.00,,---,0.00,VWS V13.01,2013-05-06 18:35:00,
2013-05-06 11:40:00,69.8,54.8,21.56,North,4,5.0,9.0,59,0.00,,---,0.00,VWS V13.01,2013-05-06 18:40:00,
2013-05-06 11:45:00,70.4,54.9,21.56,North,0,1.0,9.0,58,0.00,,---,0.00,VWS V13.01,2013-05-06 18:45:00,
2013-05-06 11:50:00,70.9,54.9,21.56,NNE,19,2.0,9.0,57,0.00,,---,0.00,VWS V13.01,2013-05-06 18:50:00,
2013-05-06 11:55:00,71.2,55.2,21.55,North,2,1.0,9.0,57,0.00,,---,0.00,VWS V13.01,2013-05-06 18:55:00,
2013-05-06 12:00:00,71.6,55.6,21.55,North,8,0.0,0.0,57,0.00,,---,0.00,VWS V13.01,2013-05-06 19:00:00,
2013-05-06 12:05:00,72.3,55.7,21.55,North,8,6.0,8.0,56,0.00,,---,0.00,VWS V13.01,2013-05-06 19:05:00,
2013-05-06 12:10:00,72.0,55.0,21.55,NNE,27,2.0,8.0,55,0.00,,---,0.00,VWS V13.01,2013-05-06 19:10:00,
2013-05-06 12:15:00,71.5,55.0,21.55,North,7,6.0,10.0,56,0.00,,---,0.00,VWS V13.01,2013-05-06 19:15:00,
2013-05-06 12:20:00,71.7,55.2,21.54,North,9,0.0,10.0,56,0.00,,---,0.00,VWS V13.01,2013-05-06 19:20:00,
2013-05-06 12:25:00,71.8,54.8,21.54,NE,51,4.0,10.0,55,0.00,,---,0.00,VWS V13.01,2013-05-06 19:25:00,
2013-05-06 12:30:00,72.1,55.1,21.54,NNE,18,1.0,2.0,55,0.00,,---,0.00,VWS V13.01,2013-05-06 19:30:00,
2013-05-06 12:35:00,72.4,54.8,21.54,NE,40,0.0,5.0,54,0.00,,---,0.00,VWS V13.01,2013-05-06 19:35:00,
2013-05-06 12:40:00,72.5,55.4,21.53,NE,39,3.0,7.0,55,0.00,,---,0.00,VWS V13.01,2013-05-06 19:40:00,
2013-05-06 12:45:00,72.7,55.6,21.53,NNE,29,2.0,7.0,55,0.00,,---,0.00,VWS V13.01,2013-05-06 19:45:00,
2013-05-06 12:50:00,73.1,55.0,21.53,NE,38,2.0,7.0,53,0.00,,---,0.00,VWS V13.01,2013-05-06 19:50:00,
2013-05-06 12:55:00,73.3,55.2,21.53,ENE,67,2.0,7.0,53,0.00,,---,0.00,VWS V13.01,2013-05-06 19:55:00,
2013-05-06 13:00:00,73.1,54.5,21.53,North,7,3.0,4.0,52,0.00,,---,0.00,VWS V13.01,2013-05-06 20:00:00,
2013-05-06 13:05:00,73.0,56.4,21.53,North,353,2.0,7.0,56,0.00,,---,0.00,VWS V13.01,2013-05-06 20:05:00,
2013-05-06 13:10:00,73.5,55.3,21.53,NNE,20,1.0,7.0,53,0.00,,---,0.00,VWS V13.01,2013-05-06 20:10:00,
2013-05-06 13:15:00,73.3,54.1,21.53,NE,40,1.0,10.0,51,0.00,,---,0.00,VWS V13.01,2013-05-06 20:15:00,
2013-05-06 13:20:00,73.0,55.9,21.52,NE,49,0.0,10.0,55,0.00,,---,0.00,VWS V13.01,2013-05-06 20:20:00,
2013-05-06 13:25:00,72.9,54.3,21.52,NNE,23,1.0,10.0,52,0.00,,---,0.00,VWS V13.01,2013-05-06 20:25:00,
2013-05-06 13:30:00,72.8,54.2,21.52,NNE,15,3.0,7.0,52,0.00,,---,0.00,VWS V13.01,2013-05-06 20:30:00,
2013-05-06 13:35:00,72.9,54.3,21.52,North,3,3.0,8.0,52,0.00,,---,0.00,VWS V13.01,2013-05-06 20:35:00,
2013-05-06 13:40:00,72.8,54.2,21.52,NNE,28,2.0,8.0,52,0.00,,---,0.00,VWS V13.01,2013-05-06 20:40:00,
2013-05-06 13:45:00,73.2,55.1,21.52,East,91,0.0,8.0,53,0.00,,---,0.00,VWS V13.01,2013-05-06 20:45:00,
2013-05-06 13:50:00,73.5,54.8,21.52,NNE,22,3.0,8.0,52,0.00,,---,0.00,VWS V13.01,2013-05-06 20:50:00,
2013-05-06 13:55:00,73.6,54.9,21.52,ENE,73,1.0,8.0,52,0.00,,---,0.00,VWS V13.01,2013-05-06 20:55:00,
2013-05-06 14:00:00,73.8,54.6,21.52,North,2,5.0,7.0,51,0.00,,---,0.00,VWS V13.01,2013-05-06 21:00:00,
2013-05-06 14:05:00,74.1,54.8,21.52,North,0,2.0,7.0,51,0.00,,---,0.00,VWS V13.01,2013-05-06 21:05:00,
2013-05-06 14:10:00,74.7,54.8,21.51,NE,42,3.0,7.0,50,0.00,,---,0.00,VWS V13.01,2013-05-06 21:10:00,
2013-05-06 14:15:00,74.8,54.4,21.51,NE,40,1.0,7.0,49,0.00,,---,0.00,VWS V13.01,2013-05-06 21:15:00,
2013-05-06 14:20:00,75.4,54.4,21.51,NE,42,2.0,7.0,48,0.00,,---,0.00,VWS V13.01,2013-05-06 21:20:00,
2013-05-06 14:25:00,75.7,54.6,21.51,NE,40,1.0,7.0,48,0.00,,---,0.00,VWS V13.01,2013-05-06 21:25:00,
2013-05-06 14:30:00,76.3,55.2,21.51,NE,36,0.0,4.0,48,0.00,,---,0.00,VWS V13.01,2013-05-06 21:30:00,
2013-05-06 14:35:00,76.4,55.3,21.51,NE,49,4.0,6.0,48,0.00,,---,0.00,VWS V13.01,2013-05-06 21:35:00,
2013-05-06 14:40:00,75.7,54.1,21.51,NNE,24,2.0,6.0,47,0.00,,---,0.00,VWS V13.01,2013-05-06 21:40:00,
2013-05-06 14:45:00,74.8,53.8,21.51,NNE,28,4.0,6.0,48,0.00,,---,0.00,VWS V13.01,2013-05-06 21:45:00,
2013-05-06 14:50:00,74.9,54.5,21.50,NNE,14,8.0,8.0,49,0.00,,---,0.00,VWS V13.01,2013-05-06 21:50:00,
2013-05-06 14:55:00,75.3,53.7,21.51,North,3,2.0,10.0,47,0.00,,---,0.00,VWS V13.01,2013-05-06 21:55:00,
2013-05-06 15:00:00,75.4,54.4,21.50,NE,51,2.0,3.0,48,0.00,,---,0.00,VWS V13.01,2013-05-06 22:00:00,
2013-05-06 15:05:00,74.9,54.5,21.50,NNE,18,2.0,6.0,49,0.00,,---,0.00,VWS V13.01,2013-05-06 22:05:00,
2013-05-06 15:10:00,74.6,54.2,21.49,NE,51,0.0,9.0,49,0.00,,---,0.00,VWS V13.01,2013-05-06 22:10:00,
2013-05-06 15:15:00,74.7,54.8,21.49,NNE,19,8.0,9.0,50,0.00,,---,0.00,VWS V13.01,2013-05-06 22:15:00,
2013-05-06 15:20:00,74.7,54.3,21.49,NE,55,4.0,10.0,49,0.00,,---,0.00,VWS V13.01,2013-05-06 22:20:00,
2013-05-06 15:25:00,74.6,54.2,21.49,North,3,11.0,11.0,49,0.00,,---,0.00,VWS V13.01,2013-05-06 22:25:00,
2013-05-06 15:30:00,74.5,55.2,21.48,North,9,0.0,1.0,51,0.00,,---,0.00,VWS V13.01,2013-05-06 22:30:00,
2013-05-06 15:35:00,74.7,55.9,21.48,North,6,6.0,10.0,52,0.00,,---,0.00,VWS V13.01,2013-05-06 22:35:00,
2013-05-06 15:40:00,74.4,54.6,21.48,NE,35,4.0,10.0,50,0.00,,---,0.00,VWS V13.01,2013-05-06 22:40:00,
2013-05-06 15:45:00,74.4,54.0,21.47,NNE,28,2.0,10.0,49,0.00,,---,0.00,VWS V13.01,2013-05-06 22:45:00,
2013-05-06 15:50:00,74.3,53.9,21.47,North,2,5.0,10.0,49,0.00,,---,0.00,VWS V13.01,2013-05-06 22:50:00,
2013-05-06 15:55:00,74.3,53.9,21.47,NNE,12,4.0,10.0,49,0.00,,---,0.00,VWS V13.01,2013-05-06 22:55:00,
2013-05-06 16:00:00,74.3,53.4,21.46,NNE,28,4.0,4.0,48,0.00,,---,0.00,VWS V13.01,2013-05-06 23:00:00,
2013-05-06 16:05:00,74.3,53.9,21.47,ENE,60,2.0,4.0,49,0.00,,---,0.00,VWS V13.01,2013-05-06 23:05:00,
2013-05-06 16:10:00,74.2,53.8,21.46,NE,46,1.0,4.0,49,0.00,,---,0.00,VWS V13.01,2013-05-06 23:10:00,
2013-05-06 16:15:00,73.9,53.6,21.46,NNE,20,2.0,8.0,49,0.00,,---,0.00,VWS V13.01,2013-05-06 23:15:00,
2013-05-06 16:21:00,73.9,54.7,21.46,North,354,7.0,12.0,51,0.00,,---,0.00,VWS V13.01,2013-05-06 23:21:00,
2013-05-06 16:26:00,73.9,55.2,21.46,North,356,3.0,12.0,52,0.00,,---,0.00,VWS V13.01,2013-05-06 23:26:00,
2013-05-06 16:31:00,73.8,55.1,21.45,North,359,0.0,5.0,52,0.00,,---,0.00,VWS V13.01,2013-05-06 23:31:00,
2013-05-06 16:36:00,73.8,54.6,21.45,NNE,31,3.0,7.0,51,0.00,,---,0.00,VWS V13.01,2013-05-06 23:36:00,
2013-05-06 16:41:00,73.8,54.0,21.45,NE,39,2.0,7.0,50,0.00,,---,0.00,VWS V13.01,2013-05-06 23:41:00,
2013-05-06 16:46:00,73.8,54.0,21.45,NE,53,4.0,7.0,50,0.00,,---,0.00,VWS V13.01,2013-05-06 23:46:00,
2013-05-06 16:51:00,74.0,54.2,21.45,North,351,2.0,9.0,50,0.00,,---,0.00,VWS V13.01,2013-05-06 23:51:00,
2013-05-06 16:56:00,74.1,53.7,21.45,North,0,3.0,10.0,49,0.00,,---,0.00,VWS V13.01,2013-05-06 23:56:00,
2013-05-06 17:01:00,73.8,53.5,21.45,NNE,12,4.0,7.0,49,0.00,,---,0.00,VWS V13.01,2013-05-07 00:01:00,
2013-05-06 17:06:00,73.6,53.8,21.45,North,1,12.0,13.0,50,0.00,,---,0.00,VWS V13.01,2013-05-07 00:06:00,
2013-05-06 17:11:00,73.2,54.0,21.45,North,355,2.0,13.0,51,0.00,,---,0.00,VWS V13.01,2013-05-07 00:11:00,
2013-05-06 17:16:00,73.2,54.0,21.45,North,3,8.0,13.0,51,0.00,,---,0.00,VWS V13.01,2013-05-07 00:16:00,
2013-05-06 17:21:00,73.2,53.5,21.45,NNE,16,2.0,13.0,50,0.00,,---,0.00,VWS V13.01,2013-05-07 00:21:00,
2013-05-06 17:26:00,73.2,52.9,21.45,NNE,21,2.0,13.0,49,0.00,,---,0.00,VWS V13.01,2013-05-07 00:26:00,
2013-05-06 17:31:00,73.1,52.8,21.45,North,10,0.0,0.0,49,0.00,,---,0.00,VWS V13.01,2013-05-07 00:31:00,
2013-05-06 17:36:00,73.1,52.8,21.45,NNE,12,3.0,5.0,49,0.00,,---,0.00,VWS V13.01,2013-05-07 00:36:00,
2013-05-06 17:41:00,73.1,52.8,21.45,North,0,2.0,7.0,49,0.00,,---,0.00,VWS V13.01,2013-05-07 00:41:00,
2013-05-06 17:46:00,73.0,53.3,21.45,North,0,4.0,7.0,50,0.00,,---,0.00,VWS V13.01,2013-05-07 00:46:00,
2013-05-06 17:51:00,72.9,53.2,21.45,North,354,1.0,7.0,50,0.00,,---,0.00,VWS V13.01,2013-05-07 00:51:00,
2013-05-06 17:56:00,72.8,53.1,21.45,North,354,1.0,7.0,50,0.00,,---,0.00,VWS V13.01,2013-05-07 00:56:00,
2013-05-06 18:01:00,72.6,56.0,21.47,WSW,241,4.0,6.0,56,0.00,,---,0.00,VWS V13.01,2013-05-07 01:01:00,
2013-05-06 18:06:00,71.7,57.5,21.47,WSW,247,3.0,7.0,61,0.00,,---,0.00,VWS V13.01,2013-05-07 01:06:00,
2013-05-06 18:11:00,70.5,59.0,21.47,SW,226,6.0,14.0,67,0.00,,---,0.00,VWS V13.01,2013-05-07 01:11:00,
2013-05-06 18:16:00,69.6,59.8,21.47,West,275,0.0,14.0,71,0.00,,---,0.00,VWS V13.01,2013-05-07 01:16:00,
2013-05-06 18:21:00,68.1,61.3,21.47,WSW,255,6.0,14.0,79,0.00,,---,0.00,VWS V13.01,2013-05-07 01:21:00,
2013-05-06 18:26:00,66.9,61.6,21.48,NW,316,6.0,14.0,83,0.00,,---,0.00,VWS V13.01,2013-05-07 01:26:00,
2013-05-06 18:31:00,65.8,60.8,21.49,West,262,6.0,10.0,84,0.00,,---,0.00,VWS V13.01,2013-05-07 01:31:00,
2013-05-06 18:36:00,64.9,61.3,21.49,WNW,284,2.0,10.0,88,0.00,,---,0.00,VWS V13.01,2013-05-07 01:36:00,
2013-05-06 18:41:00,64.3,63.7,21.50,WSW,253,3.0,10.0,98,0.00,,---,0.00,VWS V13.01,2013-05-07 01:41:00,
2013-05-06 18:46:00,63.9,63.9,21.51,SSW,209,4.0,10.0,100,0.00,,---,0.00,VWS V13.01,2013-05-07 01:46:00,
2013-05-06 18:51:00,63.2,63.2,21.51,SSE,162,3.0,10.0,100,0.00,,---,0.00,VWS V13.01,2013-05-07 01:51:00,
2013-05-06 18:56:00,62.7,62.7,21.51,South,170,1.0,10.0,100,0.00,,---,0.00,VWS V13.01,2013-05-07 01:56:00,
2013-05-06 19:01:00,62.4,62.4,21.52,SE,139,5.0,5.0,100,0.00,,---,0.00,VWS V13.01,2013-05-07 02:01:00,
2013-05-06 19:06:00,62.1,62.1,21.52,SE,128,10.0,10.0,100,0.00,,---,0.00,VWS V13.01,2013-05-07 02:06:00,
2013-05-06 19:11:00,61.4,61.4,21.52,SSE,152,2.0,10.0,100,0.00,,---,0.00,VWS V13.01,2013-05-07 02:11:00,
2013-05-06 19:16:00,60.9,60.9,21.53,SW,220,6.0,10.0,100,0.00,,---,0.00,VWS V13.01,2013-05-07 02:16:00,
2013-05-06 19:21:00,60.6,60.6,21.53,WSW,240,4.0,10.0,100,0.00,,---,0.00,VWS V13.01,2013-05-07 02:21:00,
2013-05-06 19:26:00,60.3,60.3,21.53,SW,224,3.0,10.0,100,0.00,,---,0.00,VWS V13.01,2013-05-07 02:26:00,
2013-05-06 19:31:00,59.9,59.9,21.54,SW,236,1.0,3.0,100,0.00,,---,0.00,VWS V13.01,2013-05-07 02:31:00,
2013-05-06 19:36:00,59.9,59.9,21.54,WSW,240,0.0,3.0,100,0.00,,---,0.00,VWS V13.01,2013-05-07 02:36:00,
2013-05-06 19:41:00,60.0,60.0,21.54,WSW,239,2.0,3.0,100,0.00,,---,0.00,VWS V13.01,2013-05-07 02:41:00,
2013-05-06 19:46:00,59.8,59.8,21.55,SW,224,0.0,3.0,100,0.00,,---,0.00,VWS V13.01,2013-05-07 02:46:00,
2013-05-06 19:51:00,59.4,59.4,21.54,SW,224,1.0,4.0,100,0.00,,---,0.00,VWS V13.01,2013-05-07 02:51:00,
2013-05-06 19:56:00,58.8,58.8,21.54,North,350,3.0,7.0,100,0.00,,---,0.00,VWS V13.01,2013-05-07 02:56:00,
2013-05-06 20:01:00,58.2,58.2,21.54,North,353,3.0,4.0,100,0.00,,---,0.00,VWS V13.01,2013-05-07 03:01:00,
2013-05-06 20:06:00,57.6,57.6,21.53,North,359,5.0,6.0,100,0.00,,---,0.00,VWS V13.01,2013-05-07 03:06:00,
2013-05-06 20:11:00,57.4,57.4,21.53,NNW,345,6.0,7.0,100,0.00,,---,0.00,VWS V13.01,2013-05-07 03:11:00,
2013-05-06 20:16:00,57.2,57.2,21.52,NNW,329,7.0,10.0,100,0.00,,---,0.00,VWS V13.01,2013-05-07 03:16:00,
2013-05-06 20:21:00,57.1,57.1,21.52,NW,322,10.0,14.0,100,0.00,,---,0.00,VWS V13.01,2013-05-07 03:21:00,
2013-05-06 20:26:00,57.1,57.1,21.51,NNW,334,6.0,16.0,100,0.00,,---,0.00,VWS V13.01,2013-05-07 03:26:00,
2013-05-06 20:31:00,57.1,57.1,21.51,NNW,331,16.0,16.0,100,0.00,,---,0.00,VWS V13.01,2013-05-07 03:31:00,
2013-05-06 20:36:00,57.3,57.3,21.51,NNW,338,7.0,16.0,100,0.00,,---,0.00,VWS V13.01,2013-05-07 03:36:00,
2013-05-06 20:41:00,57.4,57.4,21.52,NNW,337,8.0,16.0,100,0.00,,---,0.00,VWS V13.01,2013-05-07 03:41:00,
2013-05-06 20:46:00,57.5,57.5,21.52,North,353,8.0,16.0,100,0.00,,---,0.00,VWS V13.01,2013-05-07 03:46:00,
2013-05-06 20:51:00,57.7,57.7,21.53,NNW,331,4.0,16.0,100,0.00,,---,0.00,VWS V13.01,2013-05-07 03:51:00,
2013-05-06 20:56:00,57.8,57.8,21.52,North,351,2.0,16.0,100,0.00,,---,0.00,VWS V13.01,2013-05-07 03:56:00,
2013-05-06 21:01:00,58.0,58.0,21.53,North,0,3.0,3.0,100,0.00,,---,0.00,VWS V13.01,2013-05-07 04:01:00,
2013-05-06 21:03:00,58.0,58.0,21.53,North,0,0.0,3.0,100,0.00,,---,0.00,VWS V13.01,2013-05-07 04:03:00,
2013-05-06 21:04:00,58.1,58.1,21.53,North,0,2.0,3.0,100,0.00,,---,0.00,VWS V13.01,2013-05-07 04:04:00,
2013-05-06 21:07:00,58.1,58.1,21.54,North,0,3.0,6.0,100,0.00,,---,0.00,VWS V13.01,2013-05-07 04:07:00,
2013-05-06 21:12:00,58.2,58.2,21.54,North,0,4.0,6.0,100,0.00,,---,0.00,VWS V13.01,2013-05-07 04:12:00,
2013-05-06 21:14:00,58.2,58.2,21.54,WSW,237,3.0,7.0,100,0.00,,---,0.00,VWS V13.01,2013-05-07 04:14:00,
2013-05-06 21:19:00,58.1,58.1,21.54,WSW,241,1.0,7.0,100,0.00,,---,0.00,VWS V13.01,2013-05-07 04:19:00,
2013-05-06 21:25:00,58.1,58.1,21.55,WSW,241,3.0,7.0,100,0.00,,---,0.00,VWS V13.01,2013-05-07 04:25:00,
2013-05-06 21:30:00,58.1,58.1,21.55,WSW,237,4.0,7.0,100,0.00,,---,0.00,VWS V13.01,2013-05-07 04:30:00,
2013-05-06 21:35:00,58.1,58.1,21.55,SW,235,2.0,5.0,100,0.00,,---,0.00,VWS V13.01,2013-05-07 04:35:00,
2013-05-06 21:40:00,58.0,58.0,21.55,WSW,237,2.0,5.0,100,0.00,,---,0.00,VWS V13.01,2013-05-07 04:40:00,
2013-05-06 21:45:00,57.9,57.9,21.56,WSW,245,4.0,5.0,100,0.00,,---,0.00,VWS V13.01,2013-05-07 04:45:00,
2013-05-06 21:50:00,57.9,57.9,21.56,West,271,2.0,8.0,100,0.00,,---,0.00,VWS V13.01,2013-05-07 04:50:00,
2013-05-06 21:55:00,57.7,57.7,21.56,West,279,6.0,8.0,100,0.00,,---,0.00,VWS V13.01,2013-05-07 04:55:00,
2013-05-06 22:00:00,57.6,57.6,21.56,West,269,2.0,8.0,100,0.00,,---,0.00,VWS V13.01,2013-05-07 05:00:00,
2013-05-06 22:05:00,57.5,57.5,21.57,West,263,3.0,5.0,100,0.00,,---,0.00,VWS V13.01,2013-05-07 05:05:00,
2013-05-06 22:10:00,57.5,57.5,21.57,West,262,2.0,6.0,100,0.00,,---,0.00,VWS V13.01,2013-05-07 05:10:00,
2013-05-06 22:15:00,57.5,57.5,21.57,West,259,1.0,6.0,100,0.00,,---,0.00,VWS V13.01,2013-05-07 05:15:00,
2013-05-06 22:20:00,57.5,57.5,21.57,West,259,2.0,6.0,100,0.00,,---,0.00,VWS V13.01,2013-05-07 05:20:00,
2013-05-06 22:25:00,57.6,57.6,21.57,West,260,0.0,6.0,100,0.00,,---,0.00,VWS V13.01,2013-05-07 05:25:00,
2013-05-06 22:30:00,57.7,57.7,21.57,West,260,0.0,1.0,100,0.00,,---,0.00,VWS V13.01,2013-05-07 05:30:00,
2013-05-06 22:35:00,57.6,57.6,21.58,West,260,1.0,3.0,100,0.00,,---,0.00,VWS V13.01,2013-05-07 05:35:00,
2013-05-06 22:40:00,57.7,57.7,21.58,West,259,2.0,4.0,100,0.00,,---,0.00,VWS V13.01,2013-05-07 05:40:00,
2013-05-06 22:45:00,57.6,57.6,21.58,West,261,4.0,4.0,100,0.00,,---,0.00,VWS V13.01,2013-05-07 05:45:00,
2013-05-06 22:50:00,57.6,57.6,21.58,West,261,3.0,5.0,100,0.00,,---,0.00,VWS V13.01,2013-05-07 05:50:00,
2013-05-06 22:55:00,57.7,57.7,21.58,West,261,1.0,5.0,100,0.00,,---,0.00,VWS V13.01,2013-05-07 05:55:00,
2013-05-06 23:00:00,57.6,57.6,21.58,West,261,2.0,2.0,100,0.00,,---,0.00,VWS V13.01,2013-05-07 06:00:00,
2013-05-06 23:05:00,57.6,57.6,21.58,WSW,246,0.0,4.0,100,0.00,,---,0.00,VWS V13.01,2013-05-07 06:05:00,
2013-05-06 23:10:00,57.6,57.6,21.58,WSW,246,0.0,4.0,100,0.00,,---,0.00,VWS V13.01,2013-05-07 06:10:00,
2013-05-06 23:15:00,57.7,57.7,21.58,WSW,246,0.0,4.0,100,0.00,,---,0.00,VWS V13.01,2013-05-07 06:15:00,
2013-05-06 23:20:00,57.7,57.7,21.59,WSW,246,2.0,4.0,100,0.00,,---,0.00,VWS V13.01,2013-05-07 06:20:00,
2013-05-06 23:25:00,57.7,57.7,21.58,WSW,246,2.0,4.0,100,0.00,,---,0.00,VWS V13.01,2013-05-07 06:25:00,
2013-05-06 23:30:00,57.7,57.7,21.58,WSW,246,1.0,1.0,100,0.00,,---,0.00,VWS V13.01,2013-05-07 06:30:00,
2013-05-06 23:35:00,57.8,57.8,21.59,WSW,246,0.0,3.0,100,0.00,,---,0.00,VWS V13.01,2013-05-07 06:35:00,
2013-05-06 23:40:00,57.9,57.9,21.59,WSW,246,2.0,4.0,100,0.00,,---,0.00,VWS V13.01,2013-05-07 06:40:00,
2013-05-06 23:45:00,57.9,57.9,21.59,WSW,246,0.0,4.0,100,0.00,,---,0.00,VWS V13.01,2013-05-07 06:45:00,
2013-05-06 23:50:00,58.0,58.0,21.59,WSW,246,0.0,4.0,100,0.00,,---,0.00,VWS V13.01,2013-05-07 06:50:00,
2013-05-06 23:55:00,58.0,58.0,21.59,WSW,246,0.0,4.0,100,0.00,,---,0.00,VWS V13.01,2013-05-07 06:55:00,